Weather Roundup
Issued by NWS Chicago, IL

Home | Current Version | Previous Version | Text Only | Print | Product List | Glossary Off
Versions: 1 2 3 4 5 6 7 8 9 10 11 12 13 14 15 16 17 18 19 20 21 22 23 24 25 26 27 28 29 30 31 32 33 34 35 36 37 38 39 40 41 42 43 44 45 46 47 48 49 50

000
NZUS59 KLOT 060203
HRRLOT

CHICAGO AREA WEATHER ROUNDUP
NATIONAL WEATHER SERVICE CHICAGO/ROMEOVILLE IL
900 PM CDT THU MAY 05 2016

NOTE: "FAIR" INDICATES FEW OR NO CLOUDS BELOW 12,000 FEET WITH NO
SIGNIFICANT WEATHER AND/OR OBSTRUCTIONS TO VISIBILITY.

* THESE STATIONS ARE NOT UNDER NWS QUALITY CONTROL. THEY ALSO MAY NOT
  REPORT WEATHER SUCH AS PRECIPITATION OR FOG.

ILZ005-006-012>014-019>023-060300-
NORTHEAST ILLINOIS

CITY           SKY/WX    TMP DP  RH WIND       PRES   REMARKS
OHARE          PTCLDY    52  37  56 E3        29.98R
MIDWAY         PTCLDY    52  37  56 CALM      29.98S
AURORA         CLEAR     55  42  61 W3        29.98R
LANSING*       CLEAR     49  39  69 CALM      29.98S
WAUKEGAN       CLEAR     43  37  79 CALM      29.97S
DUPAGE AIRPORT CLEAR     53  40  61 SE5       29.97R
WHEELING       CLEAR     50  36  58 CALM      29.99S
$$

WIZ051-052-058>065-066-070>072-060300-
SOUTHEAST WISCONSIN

CITY           SKY/WX    TMP DP  RH WIND       PRES   REMARKS
MILWAUKEE      PTCLDY    49  36  61 S5        29.97S
KENOSHA*       CLEAR     45  36  70 SE3       29.97S
RACINE*        CLEAR     48  35  60 CALM      29.99S
BURLINGTON     CLEAR     50  40  67 CALM      29.97S
WAUKESHA       CLEAR     48  37  66 SE5       29.97S
$$

INZ001>003-010>013-019-020-060300-
NORTHWEST INDIANA

CITY           SKY/WX    TMP DP  RH WIND       PRES   REMARKS
GARY*          PTCLDY    46  46 100 CALM      29.99R
MICHIGAN CITY* NOT AVBL
RENSSELAER*    NOT AVBL
VALPARAISO     CLEAR     49  37  63 N5        29.98R
$$

LMZ740>746-060300-
SOUTHERN LAKE MICHIGAN

STATION/POSITION TIME  SKY/WX   TEMP WIND        PRES    VSBY
                                AIR  DIR/SP/G
                 (UTC)          (F)  (DEG/KT/KT) (MB)    (MI)
HARRISON CRIB    0100            46     CALM       N/A
BURNHAM HARBOR   0200            46  340/  1/  1   N/A
CALUMET HARBOR   0100            46              1014.6F
BURNS HARBOR     0100            48   60/  3/  5 1015.6
MICHIGAN CITY    0100            46   30/  3/  3   N/A
$$

ABBREVIATIONS USED IN REMARKS
   TC - TEMPERATURE IN CELSIUS
  WCI - WIND CHILL INDEX
   HX - HEAT INDEX
  VSB - VISIBILITY
$$




USA.gov is the U.S. government's official web portal to all federal, state and local government web resources and services.